カタログに戻る

STARLINK-30710

運用中通信VLEO
NORAD 57938·PAYLOAD·🇺🇸 United States

打ち上げ Sep 25, 2023 から Vandenberg Space Force Base

Loading…

次のパス (今後24時間)

TLE

最新Source: CelesTrak SupGP

元期: Sep 15, 2026, 01:57 UTC

1 57938C 23148D   26258.08173611 -.00062529  00000+0 -18471-2 0  2586
2 57938  53.1589 210.7415 0001312  89.3796 323.0203 15.34427561    16

AllMySatでSTARLINK-30710をリアルタイム追跡

Download on the App Store